Beaver Island, MI

4:30 AM EDT on October 18, 2017 (GMT -0400)
Beaver Island

Weather History for KSJX - November, 2012

Change the Weather History Date:

Thursday, November 8, 2012

  Actual Average Record
Temperature  
Mean Temperature 44 °F -  
Max Temperature 46 °F 43 °F 59 °F (1975)
Min Temperature 41 °F 31 °F 20 °F (1971)
Degree Days  
Heating Degree Days 22    
Moisture  
Dew Point 36 °F    
Average Humidity 73    
Maximum Humidity 90    
Minimum Humidity 66    
Precipitation  
Precipitation 0.00 in - - ()
Sea Level Pressure  
Sea Level Pressure 30.09 in    
Wind  
Wind Speed 6 mph (SSW)    
Max Wind Speed 17 mph    
Max Gust Speed 26 mph    
Visibility 10 miles    
Events Rain    
Averages and records for this station are not official NWS values.
T = Trace of Precipitation, MM = Missing Value Source: NWS Daily Summary

Daily Weather History Graph

Daily Weather History Graph

Search for Another Location

Airport or City:

Trip Planner

Search our weather history database for the weather conditions in past years. The results will help you decide how hot, cold, wet, or windy it might be!

Date:

Astronomy

Nov. 08, 2012 Rise Set
Actual Time 7:32 AM EST 5:18 PM EST
Civil Twilight 7:01 AM EST 5:50 PM EST
Nautical Twilight 6:25 AM EST 6:26 PM EST
Astronomical Twilight 5:50 AM EST 7:00 PM EST
Moon 1:09 AM EST (11/8) 2:15 PM EST (11/8)
Length of Visible Light 10h 49m
Length of Day
9h 46m
Waning Crescent, 33% of the Moon is Illuminated
Nov 8
Waning Crescent
Nov 13
New
Nov 20
First Quarter
Nov 28
Full
Dec 6
Last Quarter

Hourly Weather History & Observations

Time (EST) Temp. Windchill Dew Point Humidity Pressure Visibility Wind Dir Wind Speed Gust Speed Precip Events Conditions
12:16 AM 41.9 °F 39.0 °F 31.1 °F 66% 30.13 in 10.0 mi SE 4.6 mph - N/A   Overcast
12:36 AM 42.3 °F 40.5 °F 31.5 °F 66% 30.13 in 10.0 mi SSE 3.5 mph - N/A   Overcast
12:56 AM 42.3 °F 39.4 °F 31.8 °F 67% 30.13 in 10.0 mi SSE 4.6 mph - N/A   Overcast
1:16 AM 42.1 °F 40.2 °F 32.0 °F 67% 30.13 in 10.0 mi SSE 3.5 mph - N/A   Overcast
1:37 AM 42.3 °F 40.5 °F 32.5 °F 68% 30.12 in 10.0 mi SSE 3.5 mph - N/A   Overcast
1:56 AM 42.6 °F 39.9 °F 32.9 °F 68% 30.13 in 10.0 mi South 4.6 mph - N/A   Overcast
2:16 AM 42.8 °F 41.1 °F 33.3 °F 69% 30.13 in 10.0 mi South 3.5 mph - N/A   Overcast
2:37 AM 42.6 °F 39.9 °F 32.9 °F 68% 30.13 in 10.0 mi South 4.6 mph - N/A   Overcast
2:56 AM 42.8 °F - 33.1 °F 69% 30.13 in 10.0 mi Calm Calm - N/A   Overcast
3:16 AM 42.8 °F 41.1 °F 33.3 °F 69% 30.13 in 10.0 mi SE 3.5 mph - N/A   Overcast
3:37 AM 42.8 °F - 33.3 °F 69% 30.13 in 10.0 mi Calm Calm - N/A   Overcast
3:56 AM 43.0 °F 40.3 °F 33.1 °F 68% 30.13 in 10.0 mi South 4.6 mph - N/A   Overcast
4:16 AM 43.2 °F - 33.4 °F 69% 30.13 in 10.0 mi Calm Calm - N/A   Overcast
4:36 AM 44.1 °F 40.1 °F 35.8 °F 73% 30.13 in 10.0 mi SW 6.9 mph - N/A   Overcast
4:56 AM 44.2 °F 41.8 °F 37.0 °F 76% 30.13 in 10.0 mi SW 4.6 mph - N/A   Overcast
5:17 AM 44.2 °F 41.0 °F 36.5 °F 74% 30.13 in 10.0 mi SW 5.8 mph - N/A   Overcast
5:36 AM 43.7 °F - 36.9 °F 77% 30.13 in 10.0 mi Calm Calm - N/A   Overcast
5:56 AM 44.2 °F 42.7 °F 36.1 °F 73% 30.13 in 10.0 mi South 3.5 mph - N/A   Overcast
6:16 AM 44.2 °F 42.7 °F 35.1 °F 70% 30.13 in 10.0 mi South 3.5 mph - N/A   Overcast
6:36 AM 44.2 °F 42.7 °F 35.6 °F 72% 30.12 in 10.0 mi SSE 3.5 mph - N/A   Overcast
6:56 AM 43.2 °F - 37.2 °F 80% 30.12 in 7.0 mi Calm Calm - N/A Rain Rain
7:16 AM 43.0 °F 41.3 °F 38.5 °F 84% 30.13 in 7.0 mi SW 3.5 mph - N/A Rain Light Rain
7:56 AM 42.4 °F 40.7 °F 39.2 °F 88% 30.13 in 5.0 mi South 3.5 mph - N/A Rain Rain
8:16 AM 42.1 °F - 38.8 °F 88% 30.13 in 4.0 mi Calm Calm - N/A   Drizzle
8:37 AM 41.9 °F - 38.8 °F 89% 30.14 in 4.0 mi Calm Calm - N/A   Overcast
8:56 AM 42.3 °F - 39.4 °F 90% 30.14 in 5.0 mi Calm Calm - N/A   Overcast
9:16 AM 43.0 °F 40.3 °F 39.0 °F 86% 30.14 in 10.0 mi SW 4.6 mph - N/A   Overcast
9:36 AM 43.5 °F 39.4 °F 37.6 °F 80% 30.13 in 10.0 mi SW 6.9 mph - N/A   Overcast
9:56 AM 43.7 °F 39.7 °F 37.6 °F 79% 30.13 in 10.0 mi SW 6.9 mph - N/A   Overcast
10:17 AM 44.1 °F 40.1 °F 38.3 °F 80% 30.13 in 10.0 mi SW 6.9 mph - N/A   Overcast
10:36 AM 44.2 °F 39.7 °F 37.8 °F 78% 30.13 in 10.0 mi SW 8.1 mph - N/A   Overcast
10:56 AM 44.2 °F 38.8 °F 37.8 °F 78% 30.13 in 10.0 mi WSW 10.4 mph - N/A   Overcast
11:36 AM 44.2 °F 39.7 °F 37.4 °F 77% 30.12 in 10.0 mi SW 8.1 mph - N/A   Overcast
11:56 AM 44.4 °F 39.0 °F 36.9 °F 75% 30.11 in 10.0 mi SW 10.4 mph - N/A   Overcast
12:16 PM 45.1 °F 39.1 °F 36.7 °F 72% 30.11 in 10.0 mi SW 12.7 mph - N/A   Overcast
12:36 PM 45.1 °F 39.5 °F 36.5 °F 72% 30.10 in 10.0 mi SW 11.5 mph 16.1 mph N/A   Overcast
12:56 PM 45.9 °F 40.4 °F 36.5 °F 70% 30.09 in 10.0 mi SSW 11.5 mph 16.1 mph N/A   Overcast
1:17 PM 45.7 °F 40.6 °F 36.3 °F 70% 30.08 in 10.0 mi SSW 10.4 mph - N/A   Overcast
1:36 PM 45.7 °F 40.2 °F 36.1 °F 69% 30.08 in 10.0 mi SW 11.5 mph 16.1 mph N/A   Overcast
1:56 PM 45.3 °F 41.1 °F 36.5 °F 71% 30.08 in 10.0 mi SW 8.1 mph - N/A   Overcast
2:17 PM 44.6 °F 39.7 °F 35.8 °F 71% 30.08 in 10.0 mi SW 9.2 mph 16.1 mph N/A   Overcast
2:36 PM 44.8 °F 39.9 °F 35.4 °F 70% 30.07 in 10.0 mi SW 9.2 mph - N/A   Overcast
2:56 PM 44.8 °F 40.4 °F 35.4 °F 70% 30.06 in 10.0 mi SW 8.1 mph - N/A   Overcast
3:16 PM 45.1 °F 39.9 °F 35.6 °F 69% 30.06 in 10.0 mi SW 10.4 mph 17.3 mph N/A   Overcast
3:36 PM 45.1 °F 39.9 °F 35.6 °F 69% 30.05 in 10.0 mi SW 10.4 mph 18.4 mph N/A   Overcast
3:57 PM 45.1 °F 39.9 °F 36.0 °F 70% 30.04 in 10.0 mi SSW 10.4 mph - N/A   Overcast
4:16 PM 45.5 °F 40.3 °F 35.8 °F 69% 30.04 in 10.0 mi South 10.4 mph 16.1 mph N/A   Overcast
4:36 PM 45.1 °F 39.5 °F 36.1 °F 71% 30.03 in 10.0 mi SSW 11.5 mph 17.3 mph N/A   Overcast
4:57 PM 45.1 °F 40.3 °F 36.0 °F 70% 30.03 in 10.0 mi SSW 9.2 mph 17.3 mph N/A   Overcast
5:16 PM 45.0 °F 40.1 °F 36.1 °F 71% 30.03 in 10.0 mi SSW 9.2 mph 20.7 mph N/A   Overcast
5:36 PM 45.1 °F 39.9 °F 36.1 °F 71% 30.03 in 10.0 mi SSW 10.4 mph 17.3 mph N/A   Overcast
5:56 PM 45.1 °F 38.8 °F 36.1 °F 71% 30.03 in 10.0 mi SSW 13.8 mph 25.3 mph N/A   Overcast
6:16 PM 45.5 °F 39.9 °F 35.8 °F 69% 30.03 in 10.0 mi SW 11.5 mph 21.9 mph N/A   Overcast
6:36 PM 45.3 °F 38.7 °F 35.2 °F 68% 30.04 in 10.0 mi SSW 15.0 mph 20.7 mph N/A   Overcast
6:56 PM 45.1 °F 39.5 °F 35.6 °F 69% 30.03 in 10.0 mi SSW 11.5 mph 20.7 mph N/A   Overcast
7:17 PM 45.5 °F 38.9 °F 36.0 °F 69% 30.03 in 10.0 mi SSW 15.0 mph 20.7 mph N/A   Overcast
7:36 PM 45.0 °F 39.7 °F 36.0 °F 71% 30.03 in 10.0 mi SSW 10.4 mph 20.7 mph N/A   Overcast
7:56 PM 45.1 °F 38.8 °F 36.5 °F 72% 30.03 in 10.0 mi SSW 13.8 mph 18.4 mph N/A   Overcast
8:17 PM 44.8 °F 38.0 °F 35.8 °F 71% 30.00 in 10.0 mi SSW 15.0 mph 20.7 mph N/A   Mostly Cloudy
8:36 PM 45.3 °F 38.4 °F 36.5 °F 71% 30.03 in 10.0 mi SW 16.1 mph 24.2 mph N/A   Mostly Cloudy
8:56 PM 45.7 °F 38.6 °F 37.4 °F 73% 30.04 in 10.0 mi SW 17.3 mph 24.2 mph N/A   Overcast
9:17 PM 45.9 °F 39.1 °F 37.4 °F 72% 30.04 in 10.0 mi SW 16.1 mph 26.5 mph N/A   Overcast
9:36 PM 45.9 °F 39.4 °F 37.6 °F 73% 30.03 in 10.0 mi SW 15.0 mph 20.7 mph N/A   Overcast
9:56 PM 46.0 °F 39.3 °F 37.9 °F 73% 30.03 in 10.0 mi SW 16.1 mph 21.9 mph N/A   Overcast
10:16 PM 46.4 °F 40.4 °F 38.7 °F 74% 30.04 in 10.0 mi SW 13.8 mph 21.9 mph N/A   Overcast
10:36 PM 46.4 °F 40.7 °F 38.1 °F 73% 30.04 in 10.0 mi WSW 12.7 mph - N/A   Overcast
10:57 PM 46.4 °F 40.1 °F 37.9 °F 72% 30.03 in 10.0 mi WSW 15.0 mph 21.9 mph N/A   Overcast
11:16 PM 46.2 °F 39.8 °F 37.9 °F 73% 30.03 in 10.0 mi WSW 15.0 mph 21.9 mph N/A   Overcast
11:36 PM 45.7 °F 40.2 °F 37.4 °F 73% 30.04 in 10.0 mi WSW 11.5 mph 20.7 mph N/A   Scattered Clouds
11:56 PM 45.5 °F 39.2 °F 37.6 °F 74% 30.03 in 10.0 mi WSW 13.8 mph 19.6 mph N/A   Scattered Clouds